Humidity-temperature Sensor

Selected Measurement Type: Air Temperature

 
Air Temperature [°C]     6 entries per hour
Showing data from 10/14/2015 (00:00:00 Z) to 10/13/2015 (00:01:00 Z)
Previous Next [ Day | 3-Days | 7-Days ]
First Last
Prev [ Day | 3-Days | 7-Days ] Next
First Last

Start Time:     :
End Time:     :     
Time (in GMT) :00 :50 :40 :30 :20 :10
Previous Next [ Day | 3-Days | 7-Days ]
First Last
Prev [ Day | 3-Days | 7-Days ] Next
First Last


123 => good data
MM => data is determined as missing
-- => data not received/configured
Back to Top Back to Top
10/14/2015 00:00 to 23:10 28.84 28.80 28.60 28.66 28.52 28.47
10/13/2015 23:00 to 22:10 28.60 28.58 28.54 28.53 28.65 28.58
10/13/2015 22:00 to 21:10 28.49 28.52 28.50 28.55 28.48 28.55
10/13/2015 21:00 to 20:10 28.54 28.62 28.57 28.55 28.61 28.47
10/13/2015 20:00 to 19:10 28.52 28.61 28.58 28.59 28.56 28.58
10/13/2015 19:00 to 18:10 28.50 28.55 28.55 28.64 28.66 28.72
10/13/2015 18:00 to 17:10 28.52 28.56 28.70 28.63 28.65 28.67
10/13/2015 17:00 to 16:10 -- -- -- -- -- --
10/13/2015 16:00 to 15:10 28.47 28.44 28.42 28.44 28.31 28.27
10/13/2015 15:00 to 14:10 28.32 28.33 28.30 28.25 28.27 28.23
10/13/2015 14:00 to 13:10 28.08 27.47 27.75 28.27 28.15 28.15
10/13/2015 13:00 to 12:10 28.30 28.43 28.46 28.44 28.30 28.31
10/13/2015 12:00 to 11:10 28.15 27.14 27.11 27.03 26.85 26.92
10/13/2015 11:00 to 10:10 26.91 26.97 27.83 27.28 27.61 27.27
10/13/2015 10:00 to 9:10 27.27 28.34 28.27 28.26 28.02 28.16
10/13/2015 09:00 to 8:10 28.20 28.31 28.28 28.35 28.39 28.40
10/13/2015 08:00 to 7:10 28.38 28.38 28.39 28.36 28.31 28.42
10/13/2015 07:00 to 6:10 28.40 28.34 28.44 28.48 28.47 28.58
10/13/2015 06:00 to 5:10 28.47 28.46 28.49 28.49 28.44 28.41
10/13/2015 05:00 to 4:10 28.42 28.38 28.31 28.38 28.33 28.15
10/13/2015 04:00 to 3:10 28.11 28.00 27.93 27.53 27.65 27.53
10/13/2015 03:00 to 2:10 27.47 27.93 27.58 27.66 27.15 26.57
10/13/2015 02:00 to 1:10 25.71 25.51 26.41 26.94 28.67 28.71
10/13/2015 01:00 to 0:10 28.62 28.65 28.79 28.60 28.47 28.66